When you browse on this site, cookies collect data to enhance your experience and personalize the content and advertising you see.
Visit our Privacy Policy to learn more. By continuing to use the site, you agree to this use of cookies and data.
  • In Österreich
  • Länderverzeichnis
  • Für 7 Tage
  • Wassertemperatur
  • Wetterkarte
  • News
  • Widgets
  • user-avatar
    Anmelden

    Stündliche Wetter Tel'mankend

    Heute, 21 Oktober, Montag

    Zeit Temperatur Niederschläge Wind Luftdruck Luftfeuchtigkeit
    00:00 +17°C° 0 mm 3 m/S 768 mmHg 74%
    01:00 +17°C° 0 mm 2 m/S 767 mmHg 76%
    02:00 +16°C° 0 mm 2 m/S 767 mmHg 77%
    03:00 +16°C° 0 mm 1 m/S 767 mmHg 80%
    04:00 +15°C° 0 mm 1 m/S 767 mmHg 81%
    05:00 +15°C° 0 mm 1 m/S 768 mmHg 81%
    06:00 +15°C° 0 mm 1 m/S 768 mmHg 82%
    07:00 +17°C° 0 mm 2 m/S 768 mmHg 73%
    08:00 +19°C° 0 mm 2 m/S 768 mmHg 63%
    09:00 +21°C° 0 mm 2 m/S 768 mmHg 54%
    10:00 +23°C° 0 mm 2 m/S 768 mmHg 50%
    11:00 +24°C° 0 mm 2 m/S 768 mmHg 46%
    12:00 +25°C° 0 mm 2 m/S 768 mmHg 42%
    13:00 +26°C° 0 mm 2 m/S 768 mmHg 38%
    14:00 +26°C° 0 mm 3 m/S 767 mmHg 33%
    15:00 +26°C° 0 mm 3 m/S 767 mmHg 28%
    16:00 +25°C° 0 mm 4 m/S 767 mmHg 35%
    17:00 +22°C° 0 mm 5 m/S 767 mmHg 42%
    18:00 +20°C° 0 mm 6 m/S 767 mmHg 48%
    19:00 +19°C° 0 mm 5 m/S 767 mmHg 54%
    20:00 +19°C° 0 mm 5 m/S 767 mmHg 59%
    21:00 +17°C° 0 mm 5 m/S 767 mmHg 64%
    22:00 +17°C° 0 mm 4 m/S 767 mmHg 66%
    23:00 +17°C° 0 mm 4 m/S 767 mmHg 68%

    Morgen, 22 Oktober, Dienstag

    Zeit Temperatur Niederschläge Wind Luftdruck Luftfeuchtigkeit
    00:00 +17°C° 0 mm 4 m/S 767 mmHg 70%
    01:00 +16°C° 0 mm 3 m/S 767 mmHg 72%
    02:00 +16°C° 0 mm 3 m/S 767 mmHg 73%
    03:00 +15°C° 0 mm 2 m/S 767 mmHg 75%
    04:00 +15°C° 0 mm 2 m/S 767 mmHg 76%
    05:00 +15°C° 0 mm 2 m/S 767 mmHg 77%
    06:00 +14°C° 0 mm 2 m/S 767 mmHg 77%
    07:00 +16°C° 0 mm 2 m/S 767 mmHg 69%
    08:00 +18°C° 0 mm 2 m/S 767 mmHg 61%
    09:00 +20°C° 0 mm 2 m/S 767 mmHg 53%
    10:00 +21°C° 0 mm 2 m/S 767 mmHg 48%
    11:00 +23°C° 0 mm 2 m/S 766 mmHg 43%
    12:00 +24°C° 0 mm 2 m/S 766 mmHg 38%
    13:00 +25°C° 0 mm 2 m/S 766 mmHg 37%
    14:00 +25°C° 0 mm 2 m/S 766 mmHg 35%
    15:00 +25°C° 0 mm 3 m/S 765 mmHg 33%
    16:00 +24°C° 0 mm 3 m/S 766 mmHg 40%
    17:00 +21°C° 0 mm 4 m/S 766 mmHg 47%
    18:00 +19°C° 0 mm 4 m/S 766 mmHg 54%
    19:00 +19°C° 0 mm 4 m/S 766 mmHg 58%
    20:00 +18°C° 0 mm 4 m/S 766 mmHg 62%
    21:00 +17°C° 0 mm 3 m/S 766 mmHg 66%
    22:00 +17°C° 0 mm 3 m/S 766 mmHg 68%
    23:00 +17°C° 0 mm 3 m/S 766 mmHg 70%

    übermorgen, 23 Oktober, Mittwoch

    Zeit Temperatur Niederschläge Wind Luftdruck Luftfeuchtigkeit
    00:00 +16°C° 0 mm 2 m/S 766 mmHg 72%
    01:00 +16°C° 0 mm 2 m/S 766 mmHg 73%
    02:00 +16°C° 0 mm 2 m/S 766 mmHg 74%
    03:00 +16°C° 0 mm 1 m/S 766 mmHg 74%
    04:00 +16°C° 0 mm 2 m/S 766 mmHg 74%
    05:00 +16°C° 0 mm 2 m/S 766 mmHg 74%
    06:00 +16°C° 0 mm 2 m/S 766 mmHg 74%
    07:00 +17°C° 0 mm 2 m/S 766 mmHg 71%
    08:00 +18°C° 0 mm 2 m/S 767 mmHg 68%
    09:00 +19°C° 0 mm 2 m/S 767 mmHg 65%
    10:00 +19°C° 0 mm 3 m/S 767 mmHg 63%
    11:00 +20°C° 0 mm 3 m/S 766 mmHg 61%
    12:00 +20°C° 0 mm 3 m/S 766 mmHg 59%
    13:00 +20°C° 0 mm 3 m/S 766 mmHg 57%
    14:00 +20°C° 0 mm 3 m/S 766 mmHg 56%
    15:00 +20°C° 0 mm 3 m/S 766 mmHg 55%
    16:00 +19°C° 0 mm 3 m/S 766 mmHg 59%
    17:00 +18°C° 0 mm 3 m/S 766 mmHg 63%
    18:00 +17°C° 0 mm 3 m/S 766 mmHg 68%
    19:00 +16°C° 0 mm 3 m/S 766 mmHg 70%
    20:00 +16°C° 0 mm 3 m/S 766 mmHg 73%
    21:00 +15°C° 0 mm 2 m/S 767 mmHg 76%
    22:00 +15°C° 0 mm 2 m/S 766 mmHg 78%
    23:00 +15°C° 0 mm 2 m/S 766 mmHg 80%

    24 Oktober, Donnerstag

    Zeit Temperatur Niederschläge Wind Luftdruck Luftfeuchtigkeit
    00:00 +14°C° 0 mm 2 m/S 766 mmHg 83%
    01:00 +14°C° 0 mm 1 m/S 766 mmHg 84%
    02:00 +14°C° 0 mm 1 m/S 766 mmHg 86%
    03:00 +13°C° 0 mm 1 m/S 766 mmHg 87%
    04:00 +13°C° 0 mm 1 m/S 766 mmHg 88%
    05:00 +12°C° 0 mm 1 m/S 766 mmHg 89%
    06:00 +11°C° 0 mm 0 m/S 767 mmHg 90%
    07:00 +13°C° 0 mm 0 m/S 767 mmHg 81%
    08:00 +15°C° 0 mm 0 m/S 767 mmHg 72%
    09:00 +18°C° 0 mm 0 m/S 767 mmHg 63%
    10:00 +19°C° 0 mm 0 m/S 766 mmHg 59%
    11:00 +22°C° 0 mm 1 m/S 766 mmHg 54%
    12:00 +23°C° 0 mm 1 m/S 766 mmHg 50%
    13:00 +23°C° 0 mm 2 m/S 765 mmHg 48%
    14:00 +24°C° 0 mm 2 m/S 765 mmHg 47%
    15:00 +24°C° 0 mm 3 m/S 765 mmHg 46%
    16:00 +22°C° 0 mm 3 m/S 765 mmHg 52%
    17:00 +20°C° 0 mm 3 m/S 765 mmHg 59%
    18:00 +19°C° 0 mm 3 m/S 765 mmHg 66%
    19:00 +18°C° 0 mm 3 m/S 765 mmHg 70%
    20:00 +18°C° 0 mm 3 m/S 765 mmHg 73%
    21:00 +17°C° 0 mm 3 m/S 765 mmHg 77%
    22:00 +17°C° 0 mm 2 m/S 765 mmHg 78%
    23:00 +16°C° 0 mm 2 m/S 765 mmHg 79%

    25 Oktober, Freitag

    Zeit Temperatur Niederschläge Wind Luftdruck Luftfeuchtigkeit
    00:00 +16°C° 0 mm 2 m/S 765 mmHg 80%
    01:00 +16°C° 0 mm 2 m/S 765 mmHg 80%
    02:00 +16°C° 0 mm 2 m/S 765 mmHg 80%
    03:00 +16°C° 0 mm 1 m/S 765 mmHg 79%
    04:00 +16°C° 0 mm 1 m/S 765 mmHg 78%
    05:00 +18°C° 0 mm 1 m/S 765 mmHg 77%
    06:00 +18°C° 0 mm 1 m/S 765 mmHg 75%
    07:00 +19°C° 0 mm 1 m/S 765 mmHg 73%
    08:00 +19°C° 0 mm 1 m/S 765 mmHg 71%
    09:00 +20°C° 0 mm 1 m/S 765 mmHg 69%
    10:00 +20°C° 0 mm 1 m/S 765 mmHg 66%
    11:00 +21°C° 0 mm 1 m/S 765 mmHg 63%
    12:00 +22°C° 0 mm 1 m/S 764 mmHg 60%
    13:00 +23°C° 0 mm 1 m/S 764 mmHg 58%
    14:00 +23°C° 0 mm 2 m/S 764 mmHg 55%
    15:00 +24°C° 0 mm 2 m/S 764 mmHg 53%
    16:00 +23°C° 0 mm 2 m/S 764 mmHg 59%
    17:00 +21°C° 0 mm 3 m/S 764 mmHg 66%
    18:00 +20°C° 0 mm 3 m/S 764 mmHg 72%
    19:00 +19°C° 0 mm 3 m/S 765 mmHg 77%
    20:00 +19°C° 0 mm 3 m/S 765 mmHg 81%
    21:00 +18°C° 0 mm 3 m/S 765 mmHg 86%
    22:00 +18°C° 0.3 mm 3 m/S 765 mmHg 86%
    23:00 +18°C° 0.3 mm 3 m/S 765 mmHg 87%

    26 Oktober, Samstag

    Zeit Temperatur Niederschläge Wind Luftdruck Luftfeuchtigkeit
    00:00 +19°C° 0.3 mm 3 m/S 765 mmHg 87%
    01:00 +19°C° 0.8 mm 3 m/S 765 mmHg 87%
    02:00 +19°C° 0.8 mm 3 m/S 765 mmHg 87%
    03:00 +19°C° 0.8 mm 3 m/S 765 mmHg 87%
    04:00 +18°C° 0.4 mm 3 m/S 765 mmHg 87%
    05:00 +18°C° 0.4 mm 3 m/S 765 mmHg 87%
    06:00 +18°C° 0.4 mm 4 m/S 765 mmHg 87%
    07:00 +19°C° 0.2 mm 4 m/S 765 mmHg 83%
    08:00 +19°C° 0.2 mm 4 m/S 765 mmHg 78%
    09:00 +20°C° 0.2 mm 5 m/S 765 mmHg 74%
    10:00 +20°C° 0.5 mm 4 m/S 765 mmHg 72%
    11:00 +21°C° 0.5 mm 4 m/S 765 mmHg 69%
    12:00 +21°C° 0.5 mm 3 m/S 765 mmHg 67%
    13:00 +21°C° 0.3 mm 3 m/S 765 mmHg 62%
    14:00 +21°C° 0.3 mm 3 m/S 765 mmHg 58%
    15:00 +20°C° 0.3 mm 3 m/S 765 mmHg 54%
    16:00 +20°C° 0 mm 3 m/S 765 mmHg 55%
    17:00 +20°C° 0 mm 3 m/S 765 mmHg 56%
    18:00 +19°C° 0 mm 3 m/S 765 mmHg 57%
    19:00 +19°C° 0 mm 2 m/S 765 mmHg 60%
    20:00 +18°C° 0 mm 2 m/S 765 mmHg 63%
    21:00 +19°C° 0 mm 1 m/S 765 mmHg 66%
    22:00 +18°C° 0 mm 1 m/S 765 mmHg 69%
    23:00 +18°C° 0 mm 1 m/S 765 mmHg 71%

    27 Oktober, Sonntag

    Zeit Temperatur Niederschläge Wind Luftdruck Luftfeuchtigkeit
    00:00 +16°C° 0 mm 1 m/S 765 mmHg 73%
    01:00 +16°C° 0 mm 1 m/S 765 mmHg 75%
    02:00 +16°C° 0 mm 1 m/S 765 mmHg 76%
    03:00 +16°C° 0 mm 1 m/S 765 mmHg 77%
    04:00 +16°C° 0 mm 1 m/S 765 mmHg 78%
    05:00 +16°C° 0 mm 1 m/S 765 mmHg 78%
    06:00 +16°C° 0 mm 1 m/S 765 mmHg 79%
    07:00 +18°C° 0 mm 1 m/S 765 mmHg 73%
    08:00 +19°C° 0 mm 1 m/S 765 mmHg 68%
    09:00 +20°C° 0 mm 1 m/S 766 mmHg 62%
    10:00 +21°C° 0 mm 1 m/S 765 mmHg 56%
    11:00 +20°C° 0 mm 0 m/S 765 mmHg 50%
    12:00 +21°C° 0 mm 0 m/S 765 mmHg 43%
    13:00 +22°C° 0 mm 0 m/S 765 mmHg 42%
    14:00 +22°C° 0 mm 0 m/S 765 mmHg 41%
    15:00 +24°C° 0 mm 1 m/S 764 mmHg 39%
    16:00 +23°C° 0 mm 1 m/S 764 mmHg 43%
    17:00 +21°C° 0 mm 2 m/S 765 mmHg 47%
    18:00 +19°C° 0 mm 2 m/S 765 mmHg 52%
    19:00 +19°C° 0 mm 2 m/S 765 mmHg 55%
    20:00 +18°C° 0 mm 2 m/S 765 mmHg 59%
    21:00 +17°C° 0 mm 2 m/S 765 mmHg 62%
    22:00 +18°C° 0 mm 1 m/S 765 mmHg 64%
    23:00 +16°C° 0 mm 1 m/S 764 mmHg 67%
    Mehr zeigen